GW6471 Weather Reports


time (UTC)temp
C
wind
direction
speed
KPH
gust
KPH
rain 1hr
cm
rain 24hr
cm
rain mn
cm
humidity
%
barometer
mb
20260504000233 12 110 1.6 1.6 0.00 0.25 0.25 71 1005.5
20260503235729 12 97 1.6 1.6 0.00 0.25 0.25 64 1005.6
20260503235226 13 248 0.0 1.6 0.00 0.25 0.25 59 1005.8
20260503234724 13 196 1.6 3.2 0.00 0.25 0.25 57 1005.2
20260503234222 13 203 0.0 1.6 0.00 0.25 0.25 54 1005.3
20260503233719 13 290 3.2 3.2 0.00 0.25 0.25 52 1005.0
20260503233214 13 106 3.2 3.2 0.00 0.25 0.25 52 1005.2
20260503232711 13 222 0.0 1.6 0.00 0.25 0.25 52 1005.0
20260503232208 14 292 4.8 11.3 0.00 0.25 0.25 52 1005.1
20260503231707 14 187 3.2 3.2 0.00 0.25 0.25 52 1004.9
20260503231203 14 218 1.6 1.6 0.00 0.25 0.25 52 1004.8
20260503230659 14 172 0.0 1.6 0.00 0.25 0.25 52 1004.8
20260503230156 15 222 1.6 1.6 0.00 0.25 0.25 52 1004.9
20260503225654 15 235 1.6 1.6 0.00 0.25 0.25 51 1004.9
20260503225153 15 232 14.5 17.7 0.00 0.25 0.25 50 1004.7
20260503224651 15 160 0.0 0.0 0.00 0.25 0.25 52 1004.7
20260503224149 15 233 4.8 4.8 0.00 0.25 0.25 50 1004.7
20260503223647 16 200 3.2 3.2 0.00 0.25 0.25 49 1005.0
20260503223143 15 197 3.2 4.8 0.00 0.25 0.25 50 1004.6
20260503222640 15 223 1.6 3.2 0.00 0.25 0.25 50 1004.9
20260503222137 15 259 3.2 3.2 0.00 0.25 0.25 50 1005.0
20260503221636 15 307 6.4 12.9 0.00 0.25 0.25 51 1004.9
20260503221133 16 210 3.2 4.8 0.00 0.25 0.25 51 1004.8
20260503220629 16 241 4.8 9.7 0.00 0.25 0.25 50 1004.9
20260503220126 16 209 6.4 9.7 0.00 0.25 0.25 49 1005.0
20260503215623 15 327 3.2 3.2 0.00 0.25 0.25 51 1005.1
20260503215120 15 206 0.0 1.6 0.00 0.25 0.25 51 1005.1
20260503214619 15 234 6.4 9.7 0.00 0.25 0.25 50 1005.4
20260503214115 15 206 3.2 4.8 0.00 0.25 0.25 51 1005.4
20260503213614 15 283 3.2 4.8 0.00 0.25 0.25 51 1005.4
20260503213110 16 244 4.8 9.7 0.00 0.25 0.25 50 1005.3
20260503212608 16 273 4.8 4.8 0.00 0.25 0.25 51 1005.4
20260503212105 15 209 1.6 1.6 0.00 0.25 0.25 56 1005.3
20260503211602 15 81 3.2 3.2 0.00 0.25 0.25 56 1005.6
20260503211057 15 191 1.6 1.6 0.00 0.25 0.25 54 1005.7
20260503210554 15 214 3.2 4.8 0.00 0.25 0.25 54 1005.8
20260503210049 15 241 3.2 4.8 0.00 0.25 0.25 54 1006.0
20260503205547 14 252 4.8 6.4 0.00 0.25 0.25 58 1006.0
20260503205043 14 40 1.6 3.2 0.00 0.25 0.25 59 1006.2
20260503204540 13 223 6.4 9.7 0.00 0.25 0.25 60 1006.2
20260503204037 15 194 4.8 6.4 0.00 0.25 0.25 58 1006.1
20260503203534 15 213 6.4 6.4 0.00 0.25 0.25 58 1006.2
20260503203031 15 244 4.8 6.4 0.00 0.25 0.25 58 1006.2
20260503202529 15 173 3.2 4.8 0.00 0.25 0.25 60 1006.4
20260503202027 15 225 0.0 1.6 0.00 0.25 0.25 58 1006.6
20260503201525 15 209 1.6 1.6 0.00 0.25 0.25 60 1006.6
20260503201022 15 209 4.8 4.8 0.00 0.25 0.25 61 1006.9
20260503200518 14 279 8.0 12.9 0.00 0.25 0.25 61 1006.8
20260503200015 15 246 4.8 6.4 0.00 0.25 0.25 59 1007.0
20260503195512 15 205 3.2 6.4 0.00 0.25 0.25 62 1006.9
20260503195009 14 193 0.0 1.6 0.00 0.25 0.25 63 1007.0
20260503194506 14 247 6.4 6.4 0.00 0.25 0.25 63 1007.1
20260503194001 14 223 4.8 6.4 0.00 0.25 0.25 63 1007.3
20260503193457 14 250 6.4 9.7 0.00 0.25 0.25 61 1007.1
20260503192952 13 227 1.6 1.6 0.00 0.25 0.25 63 1007.1
20260503192449 13 245 3.2 4.8 0.00 0.25 0.25 62 1007.3
20260503191944 13 214 1.6 1.6 0.00 0.25 0.25 65 1007.6
20260503191442 12 270 3.2 3.2 0.00 0.25 0.25 69 1007.6
20260503190938 11 192 1.6 1.6 0.00 0.25 0.25 74 1007.7
20260503190436 11 179 3.2 4.8 0.00 0.25 0.25 72 1007.9
20260503185933 11 204 1.6 3.2 0.00 0.25 0.25 74 1007.8
20260503185429 10 195 3.2 3.2 0.00 0.25 0.25 75 1007.6
20260503184928 10 246 1.6 3.2 0.00 0.25 0.25 75 1008.0
20260503184425 10 31 1.6 3.2 0.00 0.25 0.25 77 1008.0
20260503183922 10 215 1.6 3.2 0.00 0.25 0.25 76 1008.0
20260503183418 10 174 0.0 0.0 0.00 0.25 0.25 76 1007.8
20260503182915 10 265 3.2 3.2 0.00 0.25 0.25 75 1007.9
20260503182414 10 210 3.2 3.2 0.00 0.25 0.25 77 1008.2
20260503181911 10 241 1.6 1.6 0.00 0.25 0.25 74 1008.2
20260503181408 10 198 1.6 1.6 0.00 0.25 0.25 73 1008.5
20260503180904 10 275 3.2 4.8 0.00 0.25 0.25 72 1008.5
20260503180402 10 221 1.6 1.6 0.00 0.25 0.25 71 1008.3
20260503175858 10 177 0.0 0.0 0.00 0.25 0.25 72 1008.3
20260503175357 10 189 3.2 4.8 0.00 0.25 0.25 72 1008.5
20260503174852 10 213 1.6 1.6 0.00 0.25 0.25 73 1008.6
20260503174351 10 199 1.6 1.6 0.00 0.25 0.25 71 1008.5
20260503173851 10 192 1.6 3.2 0.00 0.25 0.25 69 1008.5
20260503173347 10 236 1.6 1.6 0.00 0.25 0.25 68 1008.7
20260503172844 10 198 3.2 3.2 0.00 0.25 0.25 68 1008.6
20260503172342 10 228 0.0 0.0 0.00 0.25 0.25 70 1008.4
20260503171837 10 243 3.2 4.8 0.00 0.25 0.25 69 1008.6
20260503171335 10 202 1.6 1.6 0.00 0.25 0.25 72 1008.7
20260503170832 10 202 1.6 1.6 0.00 0.25 0.25 69 1008.8
20260503170328 10 244 1.6 3.2 0.00 0.25 0.25 69 1008.9
20260503150721 6 205 0.0 1.6 0.00 0.23 0.23 90 1009.9
20260503150217 6 194 0.0 0.0 0.00 0.23 0.23 91 1009.8
20260503140141 6 183 0.0 0.0 0.13 0.13 0.13 91 1009.8
20260503131111 5 209 0.0 1.6 0.13 0.08 0.08 88 1010.4
20260503130608 5 186 0.0 0.0 0.13 0.08 0.08 88 1010.4
20260503130106 5 341 3.2 4.8 0.18 0.05 0.05 86 1010.3
20260503110458 4 186 0.0 0.0 0.00 0.00 0.00 77 1010.3
20260503090349 5 185 0.0 1.6 0.00 0.00 0.00 61 1011.2
20260503081317 5 172 0.0 0.0 0.00 0.00 0.00 58 1011.5
20260503080813 5 172 0.0 0.0 0.00 0.00 0.00 58 1011.4
20260503080311 5 135 0.0 0.0 0.00 0.00 0.00 57 1011.7
20260503072747 5 203 0.0 1.6 0.00 0.00 0.00 56 1011.7
20260503072244 4 222 0.0 0.0 0.00 0.00 0.00 57 1011.8
20260503071740 4 222 0.0 0.0 0.00 0.00 0.00 57 1011.8
20260503071237 4 218 1.6 1.6 0.00 0.00 0.00 57 1012.0
20260503070733 4 197 3.2 4.8 0.00 0.00 0.00 57 1011.9
20260503070232 4 218 1.6 1.6 0.00 0.00 0.00 57 1012.0
20260503060156 2 188 0.0 1.6 0.00 0.00 0.00 68 1013.1
20260503054643 1 177 0.0 0.0 0.00 0.00 0.00 72 1013.3
20260503054141 1 172 0.0 0.0 0.00 0.00 0.00 73 1013.3
20260503053639 1 172 0.0 0.0 0.00 0.00 0.00 71 1013.4
20260503053137 1 171 0.0 0.0 0.00 0.00 0.00 70 1013.5
20260503052633 1 89 1.6 1.6 0.00 0.00 0.00 68 1013.6
20260503052130 1 201 0.0 0.0 0.00 0.00 0.00 71 1013.8
20260503051625 1 201 0.0 0.0 0.00 0.00 0.00 71 1013.8
20260503051123 1 201 0.0 0.0 0.00 0.00 0.00 71 1013.8
20260503050619 2 201 0.0 0.0 0.00 0.00 0.00 70 1013.9
20260503050116 2 201 0.0 0.0 0.00 0.00 0.00 71 1014.0
20260503045613 2 201 0.0 0.0 0.00 0.00 0.00 71 1014.1
20260503045110 2 201 0.0 0.0 0.00 0.00 0.00 71 1014.2
20260503044607 2 202 0.0 0.0 0.00 0.00 0.00 71 1014.3
20260503044105 2 202 0.0 0.0 0.00 0.00 0.00 71 1014.3
20260503043600 2 202 0.0 0.0 0.00 0.00 0.00 71 1014.1
20260503043058 2 202 0.0 0.0 0.00 0.00 0.00 72 1014.5
20260503042555 2 203 0.0 0.0 0.00 0.00 0.00 73 1014.4
20260503042051 2 203 0.0 0.0 0.00 0.00 0.00 72 1014.5
20260503041547 2 202 0.0 0.0 0.00 0.00 0.00 72 1014.4
20260503041045 2 203 0.0 0.0 0.00 0.00 0.00 72 1014.6
20260503040542 2 202 0.0 0.0 0.00 0.00 0.00 72 1014.8
20260503040040 2 202 0.0 0.0 0.00 0.00 0.00 72 1014.7
20260503035536 2 202 0.0 0.0 0.00 0.00 0.00 72 1014.9
20260503035034 2 202 0.0 0.0 0.00 0.00 0.00 72 1014.7
20260503034531 2 202 0.0 0.0 0.00 0.00 0.00 73 1014.9
20260503034028 2 203 0.0 0.0 0.00 0.00 0.00 71 1015.0
20260503033525 2 202 0.0 0.0 0.00 0.00 0.00 70 1015.1
20260503033023 2 202 0.0 0.0 0.00 0.00 0.00 68 1015.3
20260503032521 2 202 0.0 0.0 0.00 0.00 0.00 68 1015.3
20260503032019 2 202 0.0 0.0 0.00 0.00 0.00 67 1015.0
20260503031517 2 202 0.0 0.0 0.00 0.00 0.00 67 1015.4
20260503031013 2 202 0.0 0.0 0.00 0.00 0.00 68 1015.5
20260503030509 3 202 0.0 0.0 0.00 0.00 0.00 68 1015.4
20260503030007 3 202 0.0 0.0 0.00 0.00 0.00 68 1015.5
20260503025503 3 202 0.0 0.0 0.00 0.00 0.00 67 1015.6
20260503025001 3 202 0.0 0.0 0.00 0.00 0.00 68 1015.5
20260503024457 3 202 0.0 0.0 0.00 0.00 0.00 67 1015.6
20260503023955 3 203 0.0 0.0 0.00 0.00 0.00 67 1015.5
20260503023451 3 202 0.0 0.0 0.00 0.00 0.00 66 1015.6
20260503022948 3 203 0.0 0.0 0.00 0.00 0.00 65 1015.5
20260503022443 3 203 0.0 0.0 0.00 0.00 0.00 62 1015.5
20260503021939 4 203 0.0 0.0 0.00 0.00 0.00 61 1015.4
20260503021435 4 203 0.0 0.0 0.00 0.00 0.00 60 1015.6
20260503020933 4 202 0.0 0.0 0.00 0.00 0.00 58 1015.3
20260503020431 4 203 0.0 0.0 0.00 0.00 0.00 60 1015.4
20260503015927 5 202 0.0 0.0 0.00 0.00 0.00 58 1015.4
20260503015424 5 202 0.0 0.0 0.00 0.00 0.00 59 1015.3
20260503014920 5 202 0.0 0.0 0.00 0.00 0.00 60 1015.1
20260503014417 5 202 0.0 0.0 0.00 0.00 0.00 58 1015.3
20260503013915 5 202 0.0 0.0 0.00 0.00 0.00 57 1015.3
20260503013412 5 202 0.0 0.0 0.00 0.00 0.00 57 1015.4
20260503012909 5 202 0.0 0.0 0.00 0.00 0.00 58 1015.3
20260503012407 5 202 0.0 0.0 0.00 0.00 0.00 54 1015.3
20260503011903 6 202 0.0 0.0 0.00 0.00 0.00 55 1015.3
20260503011400 6 202 0.0 0.0 0.00 0.00 0.00 53 1015.3
20260503010857 6 202 0.0 0.0 0.00 0.00 0.00 51 1015.1
20260503010354 6 202 0.0 0.0 0.00 0.00 0.00 51 1015.1
20260503005850 6 202 0.0 0.0 0.00 0.00 0.00 51 1015.1
20260503005348 7 202 0.0 0.0 0.00 0.00 0.00 50 1015.4
20260503004844 7 202 0.0 0.0 0.00 0.00 0.00 51 1015.4
20260503004342 7 202 0.0 0.0 0.00 0.00 0.00 48 1015.3
20260503003839 7 202 0.0 0.0 0.00 0.00 0.00 47 1015.4
20260503003336 8 202 0.0 0.0 0.00 0.00 0.00 46 1015.4
20260503002833 8 202 0.0 0.0 0.00 0.00 0.00 43 1015.4
20260503002330 8 202 1.6 1.6 0.00 0.00 0.00 41 1015.4
20260503001826 8 211 0.0 0.0 0.00 0.00 0.00 41 1015.5
20260503001323 8 211 0.0 0.0 0.00 0.00 0.00 41 1015.5
20260503000820 8 211 0.0 0.0 0.00 0.00 0.00 39 1015.5